| time (UTC) | temp C | wind direction | speed KPH | gust KPH | rain 1hr cm | rain 24hr cm | rain mn cm | humidity % | barometer mb |
| 20260504000525 | 35 | 275 | 6.4 | 24.1 | 0.00 | 0.00 | 0.00 | 14 | 1004.7 |
| 20260504000101 | 35 | 294 | 11.3 | 24.1 | 0.00 | 0.00 | 0.00 | 14 | 1004.7 |
| 20260503235525 | 35 | 248 | 9.7 | 24.1 | 0.00 | 0.00 | 0.00 | 13 | 1004.7 |
| 20260503235027 | 35 | 217 | 9.7 | 24.1 | 0.00 | 0.00 | 0.00 | 13 | 1004.6 |
| 20260503234542 | 35 | 218 | 6.4 | 25.7 | 0.00 | 0.00 | 0.00 | 13 | 1004.7 |
| 20260503234025 | 35 | 194 | 8.0 | 25.7 | 0.00 | 0.00 | 0.00 | 13 | 1004.6 |
| 20260503233525 | 35 | 217 | 9.7 | 19.3 | 0.00 | 0.00 | 0.00 | 13 | 1004.7 |
| 20260503233044 | 35 | 196 | 6.4 | 19.3 | 0.00 | 0.00 | 0.00 | 14 | 1004.7 |
| 20260503232526 | 35 | 197 | 1.6 | 14.5 | 0.00 | 0.00 | 0.00 | 15 | 1004.7 |
| 20260503232024 | 35 | 224 | 4.8 | 17.7 | 0.00 | 0.00 | 0.00 | 15 | 1004.8 |
| 20260503231541 | 35 | 209 | 6.4 | 17.7 | 0.00 | 0.00 | 0.00 | 15 | 1004.9 |
| 20260503231025 | 35 | 170 | 1.6 | 14.5 | 0.00 | 0.00 | 0.00 | 15 | 1004.8 |
| 20260503230524 | 35 | 237 | 3.2 | 14.5 | 0.00 | 0.00 | 0.00 | 15 | 1004.8 |
| 20260503230048 | 35 | 209 | 4.8 | 14.5 | 0.00 | 0.00 | 0.00 | 15 | 1005.0 |
| 20260503225525 | 35 | 246 | 3.2 | 16.1 | 0.00 | 0.00 | 0.00 | 16 | 1005.0 |
| 20260503225024 | 35 | 208 | 6.4 | 17.7 | 0.00 | 0.00 | 0.00 | 16 | 1005.2 |
| 20260503224547 | 35 | 172 | 3.2 | 19.3 | 0.00 | 0.00 | 0.00 | 16 | 1005.2 |
| 20260503224022 | 35 | 268 | 4.8 | 19.3 | 0.00 | 0.00 | 0.00 | 15 | 1005.4 |
| 20260503223528 | 35 | 161 | 6.4 | 19.3 | 0.00 | 0.00 | 0.00 | 15 | 1005.4 |
| 20260503223042 | 35 | 203 | 6.4 | 20.9 | 0.00 | 0.00 | 0.00 | 15 | 1005.6 |
| 20260503222524 | 35 | 205 | 6.4 | 22.5 | 0.00 | 0.00 | 0.00 | 16 | 1005.6 |
| 20260503222024 | 35 | 148 | 9.7 | 22.5 | 0.00 | 0.00 | 0.00 | 15 | 1005.8 |
| 20260503221549 | 35 | 174 | 9.7 | 22.5 | 0.00 | 0.00 | 0.00 | 15 | 1005.7 |
| 20260503221026 | 35 | 146 | 8.0 | 17.7 | 0.00 | 0.00 | 0.00 | 15 | 1005.8 |
| 20260503220528 | 35 | 211 | 8.0 | 25.7 | 0.00 | 0.00 | 0.00 | 15 | 1006.0 |
| 20260503220049 | 35 | 281 | 8.0 | 25.7 | 0.00 | 0.00 | 0.00 | 15 | 1006.0 |
| 20260503215524 | 35 | 177 | 4.8 | 20.9 | 0.00 | 0.00 | 0.00 | 16 | 1006.1 |
| 20260503215024 | 35 | 155 | 11.3 | 20.9 | 0.00 | 0.00 | 0.00 | 16 | 1006.2 |
| 20260503214544 | 35 | 175 | 6.4 | 20.9 | 0.00 | 0.00 | 0.00 | 16 | 1006.1 |
| 20260503214025 | 35 | 175 | 8.0 | 20.9 | 0.00 | 0.00 | 0.00 | 16 | 1006.2 |
| 20260503213525 | 35 | 196 | 6.4 | 24.1 | 0.00 | 0.00 | 0.00 | 16 | 1006.3 |
| 20260503213041 | 35 | 0 | 6.4 | 25.7 | 0.00 | 0.00 | 0.00 | 15 | 1006.4 |
| 20260503212525 | 35 | 144 | 8.0 | 27.4 | 0.00 | 0.00 | 0.00 | 15 | 1006.6 |
| 20260503212025 | 34 | 220 | 9.7 | 29.0 | 0.00 | 0.00 | 0.00 | 17 | 1006.7 |
| 20260503211541 | 34 | 199 | 8.0 | 29.0 | 0.00 | 0.00 | 0.00 | 16 | 1006.7 |
| 20260503211029 | 35 | 237 | 4.8 | 20.9 | 0.00 | 0.00 | 0.00 | 16 | 1006.9 |
| 20260503210524 | 35 | 225 | 8.0 | 24.1 | 0.00 | 0.00 | 0.00 | 16 | 1007.0 |
| 20260503210040 | 35 | 217 | 8.0 | 24.1 | 0.00 | 0.00 | 0.00 | 16 | 1007.1 |
| 20260503205522 | 34 | 207 | 12.9 | 24.1 | 0.00 | 0.00 | 0.00 | 16 | 1007.1 |
| 20260503205022 | 34 | 187 | 4.8 | 24.1 | 0.00 | 0.00 | 0.00 | 16 | 1007.2 |
| 20260503204547 | 34 | 173 | 9.7 | 24.1 | 0.00 | 0.00 | 0.00 | 17 | 1007.3 |
| 20260503204024 | 34 | 146 | 9.7 | 24.1 | 0.00 | 0.00 | 0.00 | 17 | 1007.3 |
| 20260503203525 | 35 | 192 | 8.0 | 20.9 | 0.00 | 0.00 | 0.00 | 16 | 1007.4 |
| 20260503203044 | 34 | 163 | 4.8 | 17.7 | 0.00 | 0.00 | 0.00 | 17 | 1007.5 |
| 20260503202525 | 34 | 211 | 8.0 | 16.1 | 0.00 | 0.00 | 0.00 | 16 | 1007.5 |
| 20260503202029 | 34 | 185 | 6.4 | 24.1 | 0.00 | 0.00 | 0.00 | 17 | 1007.6 |
| 20260503201542 | 34 | 201 | 9.7 | 24.1 | 0.00 | 0.00 | 0.00 | 17 | 1007.7 |
| 20260503201025 | 34 | 193 | 6.4 | 22.5 | 0.00 | 0.00 | 0.00 | 18 | 1007.7 |
| 20260503200524 | 33 | 99 | 9.7 | 22.5 | 0.00 | 0.00 | 0.00 | 17 | 1007.8 |
| 20260503200041 | 33 | 138 | 6.4 | 22.5 | 0.00 | 0.00 | 0.00 | 17 | 1007.8 |
| 20260503195525 | 34 | 165 | 9.7 | 24.1 | 0.00 | 0.00 | 0.00 | 17 | 1007.9 |
| 20260503195029 | 34 | 214 | 9.7 | 24.1 | 0.00 | 0.00 | 0.00 | 16 | 1007.9 |
| 20260503194538 | 34 | 171 | 6.4 | 25.7 | 0.00 | 0.00 | 0.00 | 17 | 1008.0 |
| 20260503194025 | 34 | 225 | 9.7 | 25.7 | 0.00 | 0.00 | 0.00 | 17 | 1008.0 |
| 20260503193526 | 33 | 195 | 4.8 | 22.5 | 0.00 | 0.00 | 0.00 | 18 | 1008.1 |
| 20260503193049 | 33 | 209 | 6.4 | 19.3 | 0.00 | 0.00 | 0.00 | 19 | 1008.2 |
| 20260503192525 | 33 | 218 | 8.0 | 19.3 | 0.00 | 0.00 | 0.00 | 19 | 1008.5 |
| 20260503192024 | 33 | 194 | 3.2 | 16.1 | 0.00 | 0.00 | 0.00 | 21 | 1008.3 |
| 20260503191543 | 33 | 146 | 4.8 | 19.3 | 0.00 | 0.00 | 0.00 | 21 | 1008.3 |
| 20260503191025 | 33 | 167 | 6.4 | 22.5 | 0.00 | 0.00 | 0.00 | 21 | 1008.5 |
| 20260503190524 | 32 | 182 | 4.8 | 22.5 | 0.00 | 0.00 | 0.00 | 21 | 1008.5 |
| 20260503190043 | 32 | 151 | 8.0 | 20.9 | 0.00 | 0.00 | 0.00 | 21 | 1008.6 |
| 20260503185524 | 32 | 150 | 4.8 | 19.3 | 0.00 | 0.00 | 0.00 | 21 | 1008.6 |
| 20260503185025 | 32 | 138 | 8.0 | 19.3 | 0.00 | 0.00 | 0.00 | 22 | 1008.7 |
| 20260503184541 | 32 | 111 | 6.4 | 20.9 | 0.00 | 0.00 | 0.00 | 23 | 1008.7 |
| 20260503184024 | 31 | 151 | 8.0 | 20.9 | 0.00 | 0.00 | 0.00 | 23 | 1008.8 |
| 20260503183525 | 31 | 105 | 6.4 | 19.3 | 0.00 | 0.00 | 0.00 | 24 | 1008.9 |
| 20260503183100 | 31 | 108 | 8.0 | 22.5 | 0.00 | 0.00 | 0.00 | 24 | 1008.9 |
| 20260503182522 | 31 | 138 | 9.7 | 22.5 | 0.00 | 0.00 | 0.00 | 24 | 1009.0 |
| 20260503182027 | 31 | 104 | 6.4 | 24.1 | 0.00 | 0.00 | 0.00 | 25 | 1009.1 |
| 20260503181603 | 31 | 157 | 6.4 | 24.1 | 0.00 | 0.00 | 0.00 | 25 | 1009.2 |
| 20260503181025 | 31 | 158 | 6.4 | 19.3 | 0.00 | 0.00 | 0.00 | 25 | 1009.2 |
| 20260503180525 | 31 | 177 | 8.0 | 19.3 | 0.00 | 0.00 | 0.00 | 25 | 1009.3 |
| 20260503180042 | 31 | 137 | 6.4 | 19.3 | 0.00 | 0.00 | 0.00 | 25 | 1009.4 |
| 20260503175525 | 31 | 178 | 6.4 | 24.1 | 0.00 | 0.00 | 0.00 | 25 | 1009.5 |
| 20260503175025 | 31 | 111 | 8.0 | 24.1 | 0.00 | 0.00 | 0.00 | 25 | 1009.7 |
| 20260503174542 | 31 | 138 | 4.8 | 22.5 | 0.00 | 0.00 | 0.00 | 26 | 1009.5 |
| 20260503174021 | 30 | 159 | 9.7 | 25.7 | 0.00 | 0.00 | 0.00 | 26 | 1009.7 |
| 20260503173522 | 30 | 143 | 8.0 | 25.7 | 0.00 | 0.00 | 0.00 | 26 | 1009.8 |
| 20260503173053 | 30 | 126 | 8.0 | 25.7 | 0.00 | 0.00 | 0.00 | 27 | 1009.6 |
| 20260503172529 | 30 | 136 | 6.4 | 27.4 | 0.00 | 0.00 | 0.00 | 27 | 1009.6 |
| 20260503172022 | 30 | 138 | 11.3 | 27.4 | 0.00 | 0.00 | 0.00 | 26 | 1009.7 |
| 20260503171543 | 30 | 165 | 8.0 | 22.5 | 0.00 | 0.00 | 0.00 | 26 | 1009.7 |
| 20260503171025 | 30 | 154 | 9.7 | 30.6 | 0.00 | 0.00 | 0.00 | 27 | 1009.8 |
| 20260503170525 | 29 | 156 | 8.0 | 30.6 | 0.00 | 0.00 | 0.00 | 27 | 1009.8 |
| 20260503150524 | 26 | 172 | 11.3 | 27.4 | 0.00 | 0.00 | 0.00 | 32 | 1009.8 |
| 20260503131028 | 23 | 96 | 1.6 | 11.3 | 0.00 | 0.00 | 0.00 | 36 | 1009.5 |
| 20260503130524 | 23 | 134 | 1.6 | 16.1 | 0.00 | 0.00 | 0.00 | 36 | 1009.4 |
| 20260503110526 | 25 | 111 | 3.2 | 14.5 | 0.00 | 0.00 | 0.00 | 33 | 1008.9 |
| 20260503081538 | 24 | 130 | 3.2 | 8.0 | 0.00 | 0.00 | 0.00 | 28 | 1009.0 |
| 20260503081024 | 24 | 123 | 1.6 | 6.4 | 0.00 | 0.00 | 0.00 | 29 | 1009.1 |
| 20260503080525 | 24 | 115 | 1.6 | 9.7 | 0.00 | 0.00 | 0.00 | 29 | 1009.2 |
| 20260503072523 | 24 | 150 | 1.6 | 4.8 | 0.00 | 0.00 | 0.00 | 28 | 1009.2 |
| 20260503072023 | 24 | 131 | 1.6 | 4.8 | 0.00 | 0.00 | 0.00 | 27 | 1009.2 |
| 20260503071539 | 24 | 148 | 1.6 | 4.8 | 0.00 | 0.00 | 0.00 | 27 | 1009.3 |
| 20260503071026 | 25 | 134 | 1.6 | 4.8 | 0.00 | 0.00 | 0.00 | 27 | 1009.2 |
| 20260503070526 | 25 | 134 | 1.6 | 9.7 | 0.00 | 0.00 | 0.00 | 26 | 1009.2 |
| 20260503055022 | 26 | 94 | 1.6 | 6.4 | 0.00 | 0.00 | 0.00 | 22 | 1008.8 |
| 20260503054542 | 26 | 94 | 0.0 | 4.8 | 0.00 | 0.00 | 0.00 | 22 | 1008.8 |
| 20260503054022 | 26 | 0 | 0.0 | 4.8 | 0.00 | 0.00 | 0.00 | 22 | 1008.7 |
| 20260503053525 | 26 | 107 | 1.6 | 4.8 | 0.00 | 0.00 | 0.00 | 22 | 1008.8 |
| 20260503053040 | 26 | 0 | 1.6 | 4.8 | 0.00 | 0.00 | 0.00 | 22 | 1008.8 |
| 20260503052525 | 26 | 157 | 1.6 | 6.4 | 0.00 | 0.00 | 0.00 | 22 | 1008.8 |
| 20260503052024 | 26 | 157 | 1.6 | 6.4 | 0.00 | 0.00 | 0.00 | 22 | 1008.9 |
| 20260503051541 | 26 | 148 | 1.6 | 6.4 | 0.00 | 0.00 | 0.00 | 21 | 1008.9 |
| 20260503051024 | 26 | 0 | 1.6 | 9.7 | 0.00 | 0.00 | 0.00 | 21 | 1008.9 |
| 20260503050524 | 26 | 112 | 3.2 | 9.7 | 0.00 | 0.00 | 0.00 | 20 | 1008.9 |
| 20260503050040 | 26 | 80 | 3.2 | 9.7 | 0.00 | 0.00 | 0.00 | 20 | 1008.7 |
| 20260503045522 | 26 | 113 | 4.8 | 9.7 | 0.00 | 0.00 | 0.00 | 20 | 1008.7 |
| 20260503045028 | 26 | 99 | 3.2 | 9.7 | 0.00 | 0.00 | 0.00 | 21 | 1008.6 |
| 20260503044543 | 26 | 92 | 1.6 | 4.8 | 0.00 | 0.00 | 0.00 | 21 | 1008.5 |
| 20260503044023 | 26 | 92 | 3.2 | 4.8 | 0.00 | 0.00 | 0.00 | 21 | 1008.3 |
| 20260503043524 | 26 | 91 | 1.6 | 4.8 | 0.00 | 0.00 | 0.00 | 21 | 1008.4 |
| 20260503043043 | 26 | 91 | 3.2 | 4.8 | 0.00 | 0.00 | 0.00 | 22 | 1008.2 |
| 20260503042525 | 27 | 182 | 0.0 | 3.2 | 0.00 | 0.00 | 0.00 | 22 | 1008.2 |
| 20260503042025 | 27 | 182 | 0.0 | 1.6 | 0.00 | 0.00 | 0.00 | 21 | 1008.2 |
| 20260503041535 | 27 | 0 | 0.0 | 0.0 | 0.00 | 0.00 | 0.00 | 21 | 1008.1 |
| 20260503041029 | 27 | 0 | 0.0 | 0.0 | 0.00 | 0.00 | 0.00 | 22 | 1008.0 |
| 20260503040524 | 27 | 0 | 0.0 | 0.0 | 0.00 | 0.00 | 0.00 | 22 | 1007.9 |
| 20260503040042 | 27 | 0 | 0.0 | 0.0 | 0.00 | 0.00 | 0.00 | 22 | 1007.8 |
| 20260503035527 | 27 | 0 | 0.0 | 0.0 | 0.00 | 0.00 | 0.00 | 22 | 1007.8 |
| 20260503035025 | 27 | 0 | 0.0 | 0.0 | 0.00 | 0.00 | 0.00 | 21 | 1007.8 |
| 20260503034540 | 28 | 0 | 0.0 | 1.6 | 0.00 | 0.00 | 0.00 | 21 | 1007.6 |
| 20260503034025 | 28 | 0 | 0.0 | 1.6 | 0.00 | 0.00 | 0.00 | 21 | 1007.7 |
| 20260503033525 | 28 | 0 | 0.0 | 1.6 | 0.00 | 0.00 | 0.00 | 23 | 1007.6 |
| 20260503033047 | 28 | 182 | 0.0 | 1.6 | 0.00 | 0.00 | 0.00 | 20 | 1007.5 |
| 20260503032525 | 28 | 0 | 0.0 | 3.2 | 0.00 | 0.00 | 0.00 | 20 | 1007.6 |
| 20260503032022 | 28 | 0 | 0.0 | 3.2 | 0.00 | 0.00 | 0.00 | 19 | 1007.5 |
| 20260503031539 | 28 | 182 | 0.0 | 1.6 | 0.00 | 0.00 | 0.00 | 20 | 1007.5 |
| 20260503031026 | 28 | 0 | 0.0 | 1.6 | 0.00 | 0.00 | 0.00 | 21 | 1007.5 |
| 20260503030525 | 29 | 0 | 0.0 | 0.0 | 0.00 | 0.00 | 0.00 | 20 | 1007.5 |
| 20260503030043 | 29 | 0 | 0.0 | 0.0 | 0.00 | 0.00 | 0.00 | 19 | 1007.5 |
| 20260503025525 | 29 | 0 | 0.0 | 0.0 | 0.00 | 0.00 | 0.00 | 19 | 1007.4 |
| 20260503025025 | 30 | 0 | 0.0 | 0.0 | 0.00 | 0.00 | 0.00 | 18 | 1007.4 |
| 20260503024541 | 30 | 0 | 0.0 | 0.0 | 0.00 | 0.00 | 0.00 | 18 | 1007.5 |
| 20260503024025 | 30 | 0 | 0.0 | 0.0 | 0.00 | 0.00 | 0.00 | 18 | 1007.3 |
| 20260503023525 | 30 | 0 | 0.0 | 3.2 | 0.00 | 0.00 | 0.00 | 17 | 1007.4 |
| 20260503023040 | 30 | 0 | 0.0 | 3.2 | 0.00 | 0.00 | 0.00 | 16 | 1007.3 |
| 20260503022524 | 31 | 182 | 0.0 | 3.2 | 0.00 | 0.00 | 0.00 | 16 | 1007.3 |
| 20260503022031 | 31 | 0 | 0.0 | 3.2 | 0.00 | 0.00 | 0.00 | 15 | 1007.3 |
| 20260503021538 | 31 | 182 | 0.0 | 3.2 | 0.00 | 0.00 | 0.00 | 15 | 1007.3 |
| 20260503021028 | 31 | 0 | 0.0 | 1.6 | 0.00 | 0.00 | 0.00 | 15 | 1007.3 |
| 20260503020522 | 31 | 0 | 0.0 | 1.6 | 0.00 | 0.00 | 0.00 | 15 | 1007.2 |
| 20260503020039 | 31 | 0 | 0.0 | 4.8 | 0.00 | 0.00 | 0.00 | 15 | 1007.3 |
| 20260503015525 | 31 | 182 | 0.0 | 4.8 | 0.00 | 0.00 | 0.00 | 14 | 1007.4 |
| 20260503015025 | 31 | 0 | 0.0 | 4.8 | 0.00 | 0.00 | 0.00 | 14 | 1007.6 |
| 20260503014543 | 32 | 0 | 0.0 | 4.8 | 0.00 | 0.00 | 0.00 | 14 | 1007.6 |
| 20260503014025 | 32 | 0 | 0.0 | 1.6 | 0.00 | 0.00 | 0.00 | 14 | 1007.6 |
| 20260503013525 | 32 | 0 | 0.0 | 1.6 | 0.00 | 0.00 | 0.00 | 14 | 1007.6 |
| 20260503013050 | 32 | 0 | 0.0 | 6.4 | 0.00 | 0.00 | 0.00 | 14 | 1007.5 |
| 20260503012525 | 32 | 0 | 0.0 | 6.4 | 0.00 | 0.00 | 0.00 | 14 | 1007.6 |
| 20260503012025 | 32 | 124 | 0.0 | 6.4 | 0.00 | 0.00 | 0.00 | 14 | 1007.8 |
| 20260503011543 | 32 | 0 | 0.0 | 6.4 | 0.00 | 0.00 | 0.00 | 14 | 1007.8 |
| 20260503011026 | 32 | 73 | 0.0 | 4.8 | 0.00 | 0.00 | 0.00 | 14 | 1007.9 |
| 20260503010524 | 32 | 0 | 0.0 | 6.4 | 0.00 | 0.00 | 0.00 | 14 | 1007.9 |
| 20260503010056 | 32 | 0 | 0.0 | 12.9 | 0.00 | 0.00 | 0.00 | 14 | 1007.9 |
| 20260503005525 | 32 | 158 | 1.6 | 12.9 | 0.00 | 0.00 | 0.00 | 14 | 1007.8 |
| 20260503005028 | 32 | 77 | 1.6 | 12.9 | 0.00 | 0.00 | 0.00 | 14 | 1007.8 |
| 20260503004537 | 32 | 110 | 1.6 | 9.7 | 0.00 | 0.00 | 0.00 | 14 | 1007.8 |
| 20260503004025 | 32 | 0 | 0.0 | 9.7 | 0.00 | 0.00 | 0.00 | 14 | 1007.9 |
| 20260503003525 | 32 | 180 | 3.2 | 8.0 | 0.00 | 0.00 | 0.00 | 14 | 1007.8 |
| 20260503003043 | 32 | 173 | 1.6 | 11.3 | 0.00 | 0.00 | 0.00 | 14 | 1007.8 |
| 20260503002525 | 32 | 0 | 3.2 | 17.7 | 0.00 | 0.00 | 0.00 | 14 | 1007.9 |
| 20260503002025 | 32 | 148 | 3.2 | 17.7 | 0.00 | 0.00 | 0.00 | 14 | 1007.7 |
| 20260503001541 | 33 | 140 | 3.2 | 9.7 | 0.00 | 0.00 | 0.00 | 13 | 1007.6 |
| 20260503001025 | 33 | 39 | 1.6 | 8.0 | 0.00 | 0.00 | 0.00 | 13 | 1007.7 |